Volver al catálogo

HULIANWANG DIGUI-33

ActivoComunicacionesPO
NORAD 64286·PAYLOAD·🇨🇳 China

Lanzado Jun 5, 2025 desde Taiyuan Satellite Launch Center

Loading…

Próximos Pases (próximas 24 horas)

TLE

ActualizadoSource: Space-Track

Época: Sep 14, 2026, 21:31 UTC

1 64286U 25121D   26257.89677526  .00000058  00000-0  10019-3 0  9996
2 64286  86.5068 343.3785 0001606 107.1275 253.0036 13.24411978 62030

Sigue HULIANWANG DIGUI-33 en tiempo real con AllMySat

Download on the App Store